| time (UTC) | temp F | wind direction | speed MPH | gust MPH | rain 1hr in | rain 24hr in | rain mn in | humidity % | barometer mb |
| 20260905144601 | 0 | 0.0 | 0.0 | 0.00 | 0.00 | 0.00 | 1012.1 | ||
| 20260905143055 | 0 | 0.0 | 0.0 | 0.00 | 0.00 | 0.00 | 1012.1 | ||
| 20260905141551 | 0 | 0.0 | 0.0 | 0.00 | 0.00 | 0.00 | 1011.9 | ||
| 20260905140050 | 0 | 0.0 | 0.0 | 0.00 | 0.00 | 0.00 | 1011.9 | ||
| 20260905134556 | 0 | 0.0 | 0.0 | 0.00 | 0.00 | 0.00 | 1011.9 | ||
| 20260905133044 | 0 | 0.0 | 0.0 | 0.00 | 0.00 | 0.00 | 1012.2 | ||
| 20260905131536 | 0 | 0.0 | 0.0 | 0.00 | 0.00 | 0.00 | 1012.3 | ||
| 20260905130031 | 0 | 0.0 | 0.0 | 0.00 | 0.00 | 0.00 | 1012.5 | ||
| 20260905124535 | 0 | 0.0 | 0.0 | 0.00 | 0.00 | 0.00 | 1012.7 | ||
| 20260905123022 | 0 | 0.0 | 0.0 | 0.00 | 0.00 | 0.00 | 1012.7 | ||
| 20260905121519 | 0 | 0.0 | 0.0 | 0.00 | 0.00 | 0.00 | 1012.7 | ||
| 20260905120016 | 0 | 0.0 | 0.0 | 0.00 | 0.00 | 0.00 | 1012.2 | ||
| 20260905114511 | 0 | 0.0 | 0.0 | 0.00 | 0.00 | 0.00 | 1012.1 | ||
| 20260905113007 | 0 | 0.0 | 0.0 | 0.00 | 0.00 | 0.00 | 1012.1 | ||
| 20260905111506 | 0 | 0.0 | 0.0 | 0.00 | 0.00 | 0.00 | 1012.0 | ||
| 20260905110111 | 0 | 0.0 | 0.0 | 0.00 | 0.00 | 0.00 | 1011.9 | ||
| 20260905104556 | 57 | 325 | 0.0 | 0.0 | 0.00 | 0.00 | 0.00 | 100 | 1011.8 |
| 20260905103052 | 57 | 325 | 0.0 | 0.0 | 0.00 | 0.00 | 0.00 | 100 | 1011.6 |
| 20260905101601 | 57 | 325 | 0.0 | 0.0 | 0.00 | 0.00 | 0.00 | 100 | 1011.4 |
| 20260905100043 | 57 | 325 | 0.0 | 0.0 | 0.00 | 0.00 | 0.00 | 100 | 1011.4 |
| 20260905094539 | 57 | 325 | 0.0 | 0.0 | 0.00 | 0.00 | 0.00 | 100 | 1011.4 |
| 20260905093035 | 57 | 325 | 0.0 | 0.0 | 0.00 | 0.00 | 0.00 | 100 | 1011.4 |
| 20260905091530 | 57 | 325 | 0.0 | 0.0 | 0.00 | 0.00 | 0.00 | 100 | 1011.4 |
| 20260905090031 | 57 | 325 | 0.0 | 0.0 | 0.00 | 0.00 | 0.00 | 100 | 1011.4 |
| 20260905084523 | 56 | 325 | 0.0 | 0.0 | 0.00 | 0.00 | 0.00 | 100 | 1011.4 |
| 20260905083021 | 56 | 325 | 0.0 | 0.0 | 0.00 | 0.00 | 0.00 | 100 | 1011.5 |
| 20260905081515 | 56 | 325 | 0.0 | 0.0 | 0.00 | 0.00 | 0.00 | 100 | 1011.6 |
| 20260905080014 | 56 | 325 | 0.0 | 0.0 | 0.00 | 0.00 | 0.00 | 100 | 1011.6 |
| 20260905074513 | 55 | 325 | 0.0 | 0.0 | 0.00 | 0.00 | 0.00 | 100 | 1011.7 |
| 20260905073005 | 55 | 325 | 0.0 | 0.0 | 0.00 | 0.00 | 0.00 | 100 | 1011.7 |
| 20260905071503 | 55 | 325 | 0.0 | 0.0 | 0.00 | 0.00 | 0.00 | 100 | 1011.8 |
| 20260905070111 | 55 | 325 | 0.0 | 0.0 | 0.00 | 0.00 | 0.00 | 100 | 1011.9 |
| 20260905064552 | 55 | 325 | 0.0 | 0.0 | 0.00 | 0.00 | 0.00 | 100 | 1012.0 |
| 20260905063056 | 55 | 325 | 0.0 | 0.0 | 0.00 | 0.00 | 0.00 | 100 | 1012.1 |
| 20260905061544 | 54 | 325 | 0.0 | 0.0 | 0.00 | 0.00 | 0.00 | 100 | 1012.1 |
| 20260905060040 | 54 | 325 | 0.0 | 0.0 | 0.00 | 0.00 | 0.00 | 100 | 1012.2 |
| 20260905054547 | 54 | 325 | 0.0 | 0.0 | 0.00 | 0.00 | 0.00 | 100 | 1012.3 |
| 20260905053032 | 54 | 325 | 0.0 | 0.0 | 0.00 | 0.00 | 0.00 | 100 | 1012.3 |
| 20260905051527 | 54 | 325 | 0.0 | 0.0 | 0.00 | 0.00 | 0.00 | 100 | 1012.4 |
| 20260905050026 | 54 | 325 | 0.0 | 0.0 | 0.00 | 0.00 | 0.00 | 100 | 1012.6 |
| 20260905044522 | 55 | 325 | 0.0 | 0.0 | 0.00 | 0.00 | 0.00 | 100 | 1012.7 |
| 20260905043021 | 55 | 325 | 0.0 | 0.0 | 0.00 | 0.00 | 0.00 | 100 | 1012.7 |
| 20260905041513 | 55 | 325 | 0.0 | 0.0 | 0.00 | 0.00 | 0.00 | 100 | 1012.7 |
| 20260905040013 | 55 | 325 | 0.0 | 0.0 | 0.00 | 0.00 | 0.00 | 100 | 1012.6 |
| 20260905034506 | 55 | 325 | 0.0 | 0.0 | 0.00 | 0.00 | 0.01 | 100 | 1012.6 |
| 20260905033002 | 56 | 325 | 0.0 | 0.0 | 0.00 | 0.00 | 0.01 | 100 | 1012.7 |
| 20260905031605 | 56 | 325 | 0.0 | 0.0 | 0.00 | 0.00 | 0.01 | 100 | 1012.5 |
| 20260905030101 | 56 | 325 | 0.0 | 0.0 | 0.00 | 0.00 | 0.01 | 100 | 1012.4 |
| 20260905024600 | 57 | 325 | 0.0 | 0.0 | 0.00 | 0.00 | 0.01 | 100 | 1012.4 |
| 20260905023048 | 57 | 325 | 0.0 | 0.0 | 0.00 | 0.00 | 0.01 | 100 | 1012.6 |
| 20260905021544 | 57 | 325 | 0.0 | 0.0 | 0.00 | 0.00 | 0.01 | 100 | 1012.4 |
| 20260905020038 | 58 | 325 | 0.0 | 0.0 | 0.00 | 0.00 | 0.01 | 100 | 1012.5 |
| 20260905014534 | 58 | 325 | 0.0 | 0.0 | 0.00 | 0.00 | 0.01 | 100 | 1012.7 |
| 20260905013032 | 59 | 325 | 0.0 | 0.0 | 0.00 | 0.00 | 0.01 | 100 | 1012.6 |
| 20260905011525 | 59 | 325 | 0.0 | 0.0 | 0.00 | 0.00 | 0.01 | 100 | 1012.4 |
| 20260905010026 | 60 | 325 | 0.0 | 0.0 | 0.00 | 0.00 | 0.01 | 1 | 1012.5 |
| 20260905004520 | 61 | 325 | 0.0 | 0.0 | 0.00 | 0.00 | 0.01 | 11 | 1012.7 |
| 20260905003015 | 63 | 325 | 0.0 | 0.0 | 0.00 | 0.00 | 0.01 | 20 | 1012.6 |
| 20260905001511 | 64 | 325 | 0.0 | 0.0 | 0.00 | 0.00 | 0.01 | 31 | 1012.2 |
| 20260905000007 | 65 | 325 | 0.0 | 0.0 | 0.00 | 0.00 | 0.01 | 42 | 1012.1 |
| 20260904234503 | 67 | 325 | 0.0 | 0.0 | 0.00 | 0.00 | 0.01 | 51 | 1011.9 |
| 20260904233059 | 68 | 325 | 0.0 | 0.0 | 0.00 | 0.00 | 0.01 | 56 | 1011.9 |
| 20260904231555 | 69 | 325 | 0.0 | 0.0 | 0.00 | 0.00 | 0.01 | 58 | 1011.7 |
| 20260904230117 | 70 | 324 | 0.0 | 0.0 | 0.00 | 0.00 | 0.01 | 57 | 1011.6 |
| 20260904224548 | 71 | 323 | 0.0 | 0.0 | 0.00 | 0.00 | 0.01 | 57 | 1011.7 |
| 20260904223044 | 71 | 323 | 1.0 | 0.0 | 0.00 | 0.00 | 0.01 | 58 | 1011.5 |
| 20260904221539 | 71 | 328 | 1.0 | 0.0 | 0.00 | 0.00 | 0.01 | 57 | 1011.4 |
| 20260904220035 | 72 | 339 | 1.0 | 0.0 | 0.00 | 0.00 | 0.01 | 56 | 1011.2 |
| 20260904214531 | 73 | 302 | 2.0 | 0.0 | 0.00 | 0.00 | 0.01 | 55 | 1011.2 |
| 20260904213027 | 73 | 296 | 1.0 | 0.0 | 0.00 | 0.00 | 0.01 | 55 | 1011.2 |
| 20260904211522 | 73 | 331 | 1.0 | 0.0 | 0.00 | 0.00 | 0.01 | 56 | 1011.2 |
| 20260904210022 | 73 | 5 | 3.0 | 0.0 | 0.00 | 0.00 | 0.01 | 55 | 1011.4 |
| 20260904204521 | 74 | 337 | 2.0 | 0.0 | 0.00 | 0.00 | 0.01 | 54 | 1011.6 |
| 20260904203014 | 74 | 263 | 3.0 | 0.0 | 0.00 | 0.00 | 0.01 | 54 | 1011.5 |
| 20260904201509 | 74 | 285 | 4.0 | 0.0 | 0.00 | 0.00 | 0.01 | 54 | 1011.5 |
| 20260904200006 | 75 | 244 | 5.0 | 0.0 | 0.00 | 0.00 | 0.01 | 53 | 1011.4 |
| 20260904194608 | 75 | 282 | 4.0 | 0.0 | 0.00 | 0.00 | 0.01 | 52 | 1011.5 |
| 20260904193055 | 76 | 292 | 2.0 | 0.0 | 0.00 | 0.00 | 0.01 | 52 | 1011.5 |
| 20260904191551 | 75 | 281 | 3.0 | 0.0 | 0.00 | 0.00 | 0.01 | 52 | 1011.7 |
| 20260904190050 | 74 | 297 | 2.0 | 0.0 | 0.00 | 0.00 | 0.01 | 53 | 1011.8 |
| 20260904184543 | 74 | 309 | 2.0 | 0.0 | 0.00 | 0.00 | 0.01 | 53 | 1011.9 |
| 20260904183038 | 74 | 306 | 2.0 | 0.0 | 0.00 | 0.00 | 0.01 | 52 | 1012.2 |
| 20260904181535 | 73 | 350 | 2.0 | 0.0 | 0.00 | 0.00 | 0.01 | 53 | 1012.3 |
| 20260904180032 | 72 | 360 | 3.0 | 0.0 | 0.00 | 0.00 | 0.01 | 54 | 1012.3 |
| 20260904174527 | 74 | 304 | 3.0 | 0.0 | 0.00 | 0.00 | 0.01 | 53 | 1012.6 |
| 20260904173023 | 73 | 309 | 2.0 | 0.0 | 0.00 | 0.00 | 0.01 | 52 | 1012.6 |
| 20260904171520 | 72 | 336 | 3.0 | 0.0 | 0.00 | 0.00 | 0.01 | 53 | 1012.6 |
| 20260904170018 | 73 | 360 | 1.0 | 0.0 | 0.00 | 0.00 | 0.01 | 51 | 1012.5 |
| 20260904164516 | 72 | 344 | 2.0 | 0.0 | 0.00 | 0.00 | 0.01 | 51 | 1012.6 |
| 20260904163010 | 72 | 247 | 2.0 | 0.0 | 0.00 | 0.00 | 0.01 | 50 | 1012.3 |
| 20260904161505 | 71 | 360 | 5.0 | 0.0 | 0.00 | 0.00 | 0.01 | 50 | 1012.7 |
| 20260904160004 | 71 | 336 | 1.0 | 0.0 | 0.00 | 0.00 | 0.01 | 46 | 1012.8 |
| 20260904154600 | 71 | 323 | 1.0 | 0.0 | 0.00 | 0.00 | 0.01 | 44 | 1013.2 |
| 20260904153106 | 70 | 349 | 2.0 | 0.0 | 0.00 | 0.00 | 0.01 | 43 | 1013.2 |
| 20260904151552 | 70 | 13 | 1.0 | 0.0 | 0.00 | 0.00 | 0.01 | 39 | 1013.1 |